User: anonymous   Login
Location: Unspecified
(0.0000°N, 0.0000°E)
Time: 19:45:02
(UTC+00:00)
Language:

OFEQ 7 - Orbit

View from above orbital plane
View from above orbital plane
View from above satellite
View from above satellite

Ground track
Ground track

The orbit data is extracted from the following two-line orbital elements,

1 31601U 07025A   21129.09407734 0.00003200  00000-0  11366-3 0    02
2 31601 141.7073   7.3362 0004998 141.6770 218.3223 15.28115525    09
Epoch (UTC): 09 May 2021 02:15:28
Eccentricity: 0.0004998
inclination: 141.7073°
perigee height: 478 km
apogee height: 485 km
right ascension of ascending node: 7.3362°
argument of perigee: 141.6770°
revolutions per day: 15.28115525
mean anomaly at epoch: 218.3223°
orbit number at epoch: 0

The dashed part of the orbit path shows where the satellite is in the earth's shadow,  

DLR